Location: Gwatt
(46.7204°N, 7.6223°E)
Time: 00:50:39
(UTC+00:00)

H-2A R/B - Pass Details

Date: 18 September 2020
Orbit: 734 x 836 km, 98.2° (Epoch: 31 October)

Event Time Altitude Azimuth Distance (km) Brightness Sun altitude
Rises 19:13:17 0° 187° (S) 3,157 5.0 -17.3°
Reaches altitude 10° 19:15:41 10° 196° (SSW) 2,246 4.4 -17.7°
Maximum altitude 19:20:15 37° 264° (W) 1,152 3.4 -18.4°
Drops below altitude 10° 19:24:57 10° 331° (NNW) 2,307 5.2 -19.2°
Sets 19:27:27 0° 340° (NNW) 3,254 5.9 -19.6°
